Location: Gr?ba?ów
(50.1002°N, 20.0727°E)
Time: 15:35:32
(UTC+00:00)

Daily predictions for brighter satellites

Satellite Brightness Start Highest point End
(mag) Time Altitude Azimuth Time Altitude Azimuth Time Altitude Azimuth
Cosmos 2360 4.2 19:06:20 10° SSW 19:11:59 73° ESE 19:17:41 10° NNE
Cosmos 2297 Rocket 3.7 19:08:11 10° NW 19:13:10 33° WSW 19:18:08 10° SSW
ATLAS 3B R/B 3.6 19:10:28 10° NW 19:17:28 49° NE 19:24:46 10° ESE
Cosmos 44 Rocket 3.9 19:13:05 10° NNW 19:17:39 45° NE 19:22:10 10° ESE
MetOp-B 4.2 19:12:39 10° SSE 19:18:00 77° ENE 19:23:23 10° NNW
Cosmos 1328 Rocket 4.2 19:14:01 10° SSW 19:18:16 60° WNW 19:22:36 10° N
ATLAS CENTAUR R/B 4.0 19:14:57 10° NNW 19:18:27 19° NNE 19:21:54 10° ENE
ARIANE 5 R/B 4.2 19:16:56 10° ESE 19:20:28 23° ENE 19:24:02 10° N
Meteor 2-9 Rocket 4.5 19:18:26 10° N 19:24:11 60° ENE 19:29:44 10° SSE
Cosmos 1072 Rocket 4.5 19:18:36 10° S 19:24:42 81° E 19:30:52 10° NNE
Timation 2 Rocket 4.2 19:18:18 10° NNW 19:24:53 89° WSW 19:31:41 10° SSE
CZ-4C R/B 4.4 19:25:20 10° NW 19:30:46 29° NNE 19:37:10 10° ENE
Cosmos 1184 Rocket 2.5 19:29:06 10° S 19:32:07 86° ESE 19:35:10 10° NNE
Cosmos 1975 3.8 19:30:40 10° N 19:34:24 33° ENE 19:37:52 11° SE
Cosmos 1503 Rocket 4.0 19:29:20 10° S 19:34:33 67° ESE 19:39:52 10° NNE
SL-16 R/B 3.6 19:31:56 10° SE 19:35:49 19° E 19:39:42 10° ENE
ERS-1 Rocket 3.4 19:32:38 10° SE 19:37:29 51° ENE 19:42:22 10° N
Cosmos 389 Rocket 3.3 19:34:36 10° NNW 19:37:59 48° W 19:41:23 10° S
Cosmos 1933 Rocket 4.0 19:35:59 10° NNW 19:40:25 63° W 19:44:49 10° S
Meteor 2-21 4.5 19:37:42 10° N 19:43:50 80° E 19:49:59 10° SSE
CZ-4B R/B 2.7 19:40:53 10° N 19:43:56 41° WNW 19:46:55 10° SW
CZ-2C R/B 4.5 19:40:47 10° NNE 19:45:12 36° E 19:49:32 10° SSE
SPOT 1/Viking Rocket 4.3 19:41:31 10° S 19:46:32 50° W 19:51:34 10° NNW
Helios 1A Rocket 2.9 19:42:53 10° SSE 19:46:49 78° ENE 19:50:50 10° NNW
Cosmos 1733 Rocket 4.2 19:43:14 10° N 19:47:12 31° ENE 19:50:39 13° SE
Meteor 1-27 Rocket 4.3 19:42:41 10° SSW 19:48:27 66° WNW 19:54:21 10° N
Cosmos 2292 Rocket 3.0 19:50:00 10° N 19:52:59 48° ENE 19:55:06 16° SSE
Cosmos 2034 Rocket 4.1 19:46:53 10° S 19:53:11 85° E 19:59:35 10° N
SJ 16-02 1.3 19:50:56 10° SSW 19:55:17 69° ESE 19:59:39 10° NNE
Cosmos 2278 3.8 19:50:22 10° S 19:55:53 56° ESE 20:01:27 10° NE
Cosmos 1340 3.8 19:52:25 10° SSW 19:56:01 44° WNW 19:59:38 10° N
Meteor 2-21 Rocket 4.5 19:51:32 10° N 19:57:38 77° ENE 20:03:25 12° SSE
NOSS 2-1 (C) 4.1 19:59:39 16° SSE 20:01:04 21° ESE 20:03:35 10° ENE
Cosmos 2360 Rocket 3.9 19:58:59 11° ESE 20:01:12 14° E 20:04:01 10° ENE
Cosmos 2263 Rocket 2.3 19:57:04 10° NNW 20:02:41 76° WSW 20:07:29 14° SSE
Cosmos 482 Debris 4.4 20:00:10 10° W 20:02:56 44° SSW 20:05:53 16° SE
Ariane Rocket 4.3 20:01:52 10° SSW 20:06:30 36° W 20:11:12 10° NNW
ASTRO F (AKARI) 4.2 20:04:31 18° SSE 20:06:42 76° ENE 20:09:53 10° NNW
Cosmos 1726 4.5 20:07:14 10° NE 20:08:40 12° ENE 20:10:06 10° E
Meteor 2-16 Rocket 4.5 20:03:28 10° N 20:09:40 80° E 20:15:05 14° SSE
SPOT 5 3.1 20:06:30 12° S 20:11:25 78° WSW 20:16:33 10° NNW
NOSS 2-1 (D) 3.8 20:09:53 18° SSE 20:11:30 26° ESE 20:14:15 10° ENE
Terra 1.8 20:09:04 15° SSE 20:12:58 79° ENE 20:17:45 10° NNW
BREEZE-M DEB (TANK) 1.5 20:10:55 10° W 20:13:13 83° S 20:15:39 10° E
USA 215 4.5 20:09:55 10° E 20:14:15 18° ESE 20:16:25 16° SSE
Resurs 01 Rocket 3.9 20:12:12 10° SW 20:15:29 20° W 20:18:48 10° NW
Cosmos 1441 Rocket 4.4 20:16:07 19° SE 20:17:43 25° E 20:20:49 10° NE
Cosmos 1346 Rocket 3.1 20:15:00 17° SSE 20:17:50 49° E 20:21:43 10° NNE
Iridium 2 4.2 20:24:10 10° N 20:27:46 43° E 20:29:44 23° SE
Cosmos 1980 Rocket 2.9 20:26:01 10° SW 20:31:34 57° NW 20:37:11 10° NNE
SL-24 R/B - RUBIN 2 3.8 20:27:30 10° NW 20:31:49 59° SW 20:34:40 21° SSE
Cosmos 2228 Rocket 3.7 20:29:51 10° SSW 20:34:21 57° WNW 20:38:52 10° N
Cosmos 1378 3.5 20:34:31 12° SSW 20:37:51 60° WNW 20:41:30 10° N
Cosmos 2322 Rocket 2.6 20:36:17 18° S 20:39:57 41° ESE 20:45:12 10° NE
Spot 2 Rocket 4.4 20:35:42 12° SSW 20:40:07 43° W 20:44:57 10° NNW
Cosmos 2344 3.8 20:32:54 10° SW 20:40:16 72° NW 20:48:16 10° NE
Cosmos 1777 Rocket 4.3 20:35:21 10° SSW 20:40:33 71° WNW 20:45:49 10° NNE
ISS -2.6 20:37:38 10° W 20:40:35 29° SSW 20:41:27 25° S
Cosmos 1844 Rocket 3.1 20:36:49 10° NNW 20:42:20 56° NE 20:46:18 19° SE
Okean 1-7 4.3 20:40:37 20° SE 20:42:23 26° E 20:46:01 10° NNE
ATLAS 2AS CENTAUR R/B 3.0 20:37:07 10° SW 20:44:57 84° NW 20:52:30 10° NE
Cosmos 2333 Rocket 3.7 20:43:20 16° ESE 20:45:01 18° E 20:48:42 10° ENE
Meteor 2-4 Rocket 3.8 20:40:24 10° SSW 20:46:12 79° WNW 20:51:51 10° N
RESURS DK-1 3.3 20:46:19 10° SW 20:50:20 50° NW 20:54:23 10° NNE
Cosmos 1805 3.3 20:47:33 10° N 20:51:27 64° ENE 20:53:18 29° SSE
USA 267 3.8 20:45:39 10° E 20:52:04 60° NNE 20:58:28 10° WNW
Cosmos 1634 Rocket 4.2 20:50:00 10° SSW 20:56:12 70° WNW 21:02:23 10° N
ARIANE 5 R/B 3.3 20:53:39 19° SSW 20:56:38 49° W 21:01:02 10° NNW
Cosmos 1707 Rocket 4.1 20:54:12 13° SSW 20:58:03 58° WNW 21:02:25 10° N
ATLAS CENTAUR R/B 2.4 20:53:33 10° NW 20:58:20 50° NE 21:01:51 17° ESE
Cosmos 44 Rocket 4.3 20:54:49 10° NW 20:59:03 34° WSW 21:01:28 21° SSW
Cosmos 2219 Rocket 3.7 21:03:06 17° ESE 21:04:37 19° E 21:08:27 10° ENE
Meteor 2-15 Rocket 4.4 21:00:05 17° S 21:04:52 89° W 21:11:00 10° N
Cosmos 1733 3.1 21:01:08 10° N 21:04:56 89° W 21:06:32 33° S
Cosmos 1844 3.9 21:00:03 10° NNW 21:05:53 70° ENE 21:09:35 23° SE
Cosmos 1766 3.7 21:02:39 10° N 21:06:30 50° ENE 21:08:07 30° SE
ATLAS 3B R/B 3.1 21:01:18 10° NW 21:08:31 61° SW 21:13:25 23° SSE
NOSS 2-1 (E) 2.7 21:08:10 16° SW 21:10:39 87° NW 21:13:58 10° NE
Cosmos 1703 Rocket 4.0 21:11:08 29° SSE 21:12:56 47° E 21:17:11 10° NNE
Cosmos 1655 Rocket 4.0 21:09:13 10° N 21:15:29 74° E 21:19:13 26° SSE
Meteor 1-4 Rocket 2.9 21:14:55 10° NNW 21:18:19 53° W 21:19:36 33° SSW
NOSS 3-1 (C) 4.2 21:12:02 10° NW 21:19:11 71° NE 21:26:41 14° SE
SL-16 R/B 2.3 21:13:33 10° SSW 21:19:13 81° WNW 21:24:57 10° NNE
CZ-4C R/B 3.4 21:13:57 10° NW 21:20:41 57° NE 21:28:46 10° ESE
Cosmos 2237 4.2 21:16:27 18° SSW 21:20:44 76° ESE 21:26:29 10° NNE
Cosmos 1733 Rocket 4.4 21:21:01 10° NNW 21:25:00 32° W 21:27:44 17° SW
Meteor 2-10 4.0 21:19:49 10° NNW 21:25:07 79° W 21:27:49 29° S
Cosmos 1782 Rocket 3.8 21:21:32 10° N 21:25:51 57° ENE 21:27:41 32° SE
Gblst 52 Del rocket 4.5 21:19:40 10° SW 21:26:00 52° SSE 21:31:37 10° ENE
Cosmos 1707 4.5 21:25:34 18° ESE 21:26:22 19° E 21:29:12 10° NE
ERS-2 3.4 21:29:00 10° NE 21:32:04 25° E 21:32:29 25° ESE
SJ 16-02 4.0 21:31:16 10° W 21:34:20 18° NW 21:37:24 10° N
Meteor 1-15 Rocket 4.2 21:29:12 10° NNW 21:34:52 88° W 21:37:56 29° S
Cosmos 1356 4.0 21:35:10 29° SW 21:36:29 49° WNW 21:39:43 10° N
Cosmos 1908 Rocket 3.7 21:32:29 10° NNW 21:36:47 63° W 21:38:37 32° SSW
COSMOS 2428 3.9 21:35:55 22° SE 21:37:34 25° ESE 21:42:05 10° NE
Cosmos 923 Rocket 4.5 21:34:25 10° NNW 21:39:36 52° WSW 21:42:10 28° SSW
Cosmos 1300 Rocket 4.1 21:37:52 10° N 21:42:05 46° ENE 21:43:49 30° SE
Cosmos 1470 3.2 21:38:46 10° N 21:42:34 50° ENE 21:43:46 36° SE
Cosmos 1726 2.2 21:40:28 10° NNW 21:44:08 69° W 21:45:09 43° SSW
Cosmos 2360 Rocket 2.1 21:40:42 24° SSW 21:44:14 79° ESE 21:49:56 10° NNE
Cosmos 1937 Rocket 3.5 21:42:39 31° S 21:45:09 66° ESE 21:50:25 10° NNE
Cosmos 2263 Rocket 4.4 21:43:08 10° WNW 21:45:37 13° W 21:48:05 10° WSW
Cosmos 2242 Rocket 3.6 21:43:57 35° S 21:45:49 76° E 21:50:22 10° NNE
ALOS 2 2.7 21:44:37 34° SE 21:46:25 66° ENE 21:50:48 10° N
Cosmos 2266 Rocket 4.1 21:41:37 10° NNW 21:47:50 67° W 21:51:20 27° S
Meteor 1-13 Rocket 4.5 21:44:29 21° SSW 21:48:16 64° WNW 21:53:47 10° N
Okean 2 Rocket 4.4 21:44:30 10° N 21:48:35 32° ENE 21:50:44 21° ESE
Cosmos 2333 4.4 21:47:08 31° S 21:49:39 55° ESE 21:55:09 10° NE
Cosmos 1242 Rocket 3.9 21:47:57 10° N 21:51:13 31° ENE 21:52:19 25° ESE
NOSS 2-1 (C) 4.5 21:48:15 10° WSW 21:51:13 34° NW 21:54:20 10° NNE
Terra 4.1 21:48:35 10° WSW 21:51:19 15° W 21:54:03 10° NW
USA 215 3.3 21:51:44 10° ENE 21:58:13 59° SE 22:03:42 15° SW
Meteor 2-17 Rocket 4.5 21:52:16 10° N 21:58:28 78° E 22:01:45 30° SSE
Cosmos 2112 Rocket 4.4 21:55:01 10° NNW 22:00:12 53° WSW 22:02:27 31° SSW
ATLAS 5 CENTAUR R/B 4.0 21:41:01 10° NW 22:00:47 72° NNE 22:05:22 13° ESE
Cosmos 1680 Rocket 4.1 21:56:10 10° NW 22:01:13 45° WSW 22:03:26 29° SSW
Cosmos 2278 Rocket 3.3 21:56:50 10° NNW 22:02:11 39° NE 22:07:02 12° ESE
Cosmos 1626 3.7 22:03:15 22° ESE 22:03:50 23° E 22:06:47 10° NE
Cosmos 1842 3.1 22:03:47 45° SSW 22:04:55 86° W 22:08:49 10° N
Cosmos 1953 4.3 22:04:05 10° NNE 22:07:08 20° ENE 22:09:10 15° ESE
Meteor 1-22 Rocket 4.4 22:01:56 10° NNW 22:07:50 73° W 22:10:54 31° S
ADEOS Rocket 2.9 22:05:31 29° SSE 22:08:34 75° ENE 22:14:39 10° NNW
Spot 4 4.3 22:07:13 32° SSW 22:09:10 51° W 22:13:51 10° NNW
Cosmos 1818 4.0 22:04:58 10° NW 22:10:11 47° WSW 22:12:08 33° S
Iridium 4 Rocket 4.0 22:07:06 10° NNW 22:11:26 44° W 22:13:44 26° SW
Sich 1 Rocket 3.7 22:10:32 10° N 22:14:56 67° ENE 22:16:32 38° SSE
Cosmos 1898 Rocket 4.0 22:11:49 19° SW 22:15:36 57° WNW 22:20:52 10° NNE
Cosmos 1674 3.4 22:16:06 34° ESE 22:16:47 37° E 22:20:17 10° NNE
Cosmos 1900 4.5 22:15:19 21° SW 22:18:42 77° NW 22:23:53 10° NE
Okean 1-7 4.2 22:17:25 21° SW 22:19:46 37° WNW 22:23:51 10° N
Cosmos 1758 3.4 22:17:56 10° N 22:21:55 68° ENE 22:23:04 43° SE
Cosmos 2322 Rocket 3.3 22:18:45 10° WSW 22:24:01 41° NW 22:29:20 10° NNE
Okean 1 Rocket 4.4 22:20:59 10° N 22:25:00 33° ENE 22:27:12 21° ESE
Cosmos 1844 Rocket 3.9 22:21:13 10° NW 22:25:55 28° WSW 22:27:57 22° SW
Okean 3 4.5 22:25:02 24° SW 22:27:00 39° WNW 22:31:01 10° N
Cosmos 2322 3.7 22:25:29 32° SSW 22:28:14 74° ESE 22:33:59 10° NNE
Cosmos 2333 Rocket 2.2 22:25:18 27° SSW 22:28:33 85° WNW 22:34:16 10° NNE
USA 306 4.5 22:31:31 20° ESE 22:31:31 20° ESE 22:33:44 10° E
H-2A R/B 3.9 22:26:39 10° N 22:30:39 53° WNW 22:32:21 31° SW
SL-08 ROCKET BODY 4.4 22:26:02 10° NNW 22:31:55 71° W 22:34:42 32° S
Cosmos 1461 2.9 22:28:42 10° NW 22:32:49 65° SW 22:33:55 45° S
NOSS 2-2 (C) 4.3 22:28:51 10° NW 22:33:37 75° NE 22:39:32 13° SE
USA 267 3.2 22:29:44 17° SE 22:35:02 71° SW 22:41:35 10° WNW
Cosmos 220 Rocket 4.1 22:34:36 43° SSE 22:35:37 56° ESE 22:39:45 10° NNE
USA 229 DEB 3.9 22:29:03 10° NW 22:36:22 86° NE 22:43:19 14° SE
USA 229 3.9 22:29:08 10° NW 22:36:28 85° NE 22:43:27 14° SE
ASTEX 1 3.6 22:31:42 10° NNE 22:36:35 62° E 22:38:32 35° SSE
ATLAS 2AS CENTAUR R/B 4.4 22:29:51 10° W 22:36:54 37° NNW 22:43:37 10° NE
ATLAS CENTAUR R/B 2.5 22:32:41 10° NW 22:37:00 33° WSW 22:37:50 30° SW
S3M 4.5 22:39:28 26° SSE 22:42:50 52° E 22:48:57 10° NNE
SL-19 R/B 3.5 22:43:03 74° SE 22:43:16 82° ENE 22:46:11 10° NNW
NOSS 2-2 (E) 4.2 22:40:10 10° NW 22:45:09 81° SW 22:50:00 20° SE
Cosmos 1553 Rocket 3.9 22:43:37 31° S 22:46:42 81° E 22:52:56 10° N
Cosmos 1674 Rocket 3.8 22:46:04 38° SSE 22:47:25 56° E 22:51:40 10° NNE
Cosmos 2219 Rocket 2.2 22:44:47 28° SW 22:47:54 80° WNW 22:53:32 10° NNE
Cosmos 2221 Rocket 3.5 22:51:05 42° S 22:52:35 90° W 22:57:02 10° N
Meteor 1-16 Rocket 4.3 22:48:19 10° N 22:54:18 82° ENE 22:57:27 29° SSE
Cosmos 494 Rocket 3.9 22:49:25 10° NNW 22:54:33 81° WSW 22:56:50 34° SSE
Cosmos 1048 Rocket 3.9 22:49:46 10° NNW 22:54:57 75° WSW 22:57:08 35° S
CZ-2D R/B 4.3 22:53:09 10° NE 22:56:05 15° E 22:58:59 10° ESE
Cosmos 1707 3.7 23:00:36 30° WSW 23:01:53 39° WNW 23:05:33 10° N
Cosmos 1378 Rocket 3.5 23:00:50 40° S 23:02:21 77° E 23:06:49 10° NNE
NOSS 3-1 (A) 4.1 22:55:38 10° NW 23:02:56 64° SW 23:08:57 21° SSE
NOSS 0 Rocket 4.2 23:01:02 30° S 23:03:58 57° ESE 23:10:05 10° NE
SL-16 R/B 4.5 23:00:00 10° W 23:04:14 21° NW 23:08:32 10° N
USA 308 3.7 23:05:02 32° SE 23:05:02 32° SE 23:08:44 10° ENE
Cosmos 1125 Rocket 3.7 23:03:17 34° S 23:05:23 57° ESE 23:10:30 10° NNE
ERS-2 3.6 23:02:16 10° N 23:05:25 28° WNW 23:06:52 21° WSW
Cosmos 1300 3.3 23:03:58 10° N 23:07:39 48° ENE 23:09:06 31° SE
Okean 2 3.8 23:06:39 36° SW 23:08:00 53° WNW 23:12:02 10° N
CZ-4C R/B 3.2 23:02:28 10° NW 23:09:28 52° WSW 23:14:17 25° S
USA 290 2.5 23:10:46 48° WSW 23:11:20 58° WNW 23:14:32 10° NNE
Cosmos 1238 Rocket 2.7 23:09:05 10° NNW 23:11:55 42° W 23:11:57 42° W
Cosmos 2237 Rocket 2.6 23:14:56 30° S 23:17:30 53° ESE 23:23:02 10° NE
Gblst 52 Del rocket 4.3 23:11:27 10° W 23:17:39 83° N 23:23:15 10° ENE
SL-14 R/B 3.3 23:18:00 43° SSE 23:19:08 69° E 23:22:59 10° NNE
NOSS 2-2 (D) 4.3 23:16:12 10° NW 23:21:08 60° SW 23:25:34 21° SSE
Meteor 2-12 Rocket 4.4 23:15:11 10° N 23:21:19 88° E 23:24:50 27° S
COSMOS 2428 3.0 23:17:53 24° SW 23:21:22 65° WNW 23:27:03 10° NNE
Cosmos 1975 Rocket 4.3 23:19:32 22° SE 23:21:39 33° E 23:25:40 10° NNE
Cosmos 1745 Rocket 4.0 23:15:32 10° NNW 23:21:44 70° W 23:25:01 29° S
PSLV R/B 3.9 23:17:27 10° N 23:21:46 59° WNW 23:23:41 32° SW
ERBS 3.5 23:23:12 26° ESE 23:23:12 26° ESE 23:25:14 10° ENE
Resurs 1-4 Rocket 3.7 23:18:20 10° NE 23:22:35 24° E 23:25:56 14° SE
Cosmos 2151 Rocket 4.4 23:18:31 10° NNW 23:22:37 38° W 23:23:57 30° SW
Cosmos 1025 Rocket 4.5 23:23:16 19° SE 23:25:25 29° E 23:29:08 10° NNE
Cosmos 1242 Rocket 4.2 23:22:55 10° NW 23:25:41 21° W 23:26:07 21° W
Okean 2 Rocket 4.2 23:22:37 10° NNW 23:26:38 32° W 23:28:05 26° SW
USA 305 3.0 23:26:44 41° S 23:27:40 51° SE 23:31:44 10° ENE
Cosmos 2360 Rocket 4.1 23:24:17 10° W 23:28:54 25° NW 23:33:34 10° NNE
Cosmos 405 Rocket 2.9 23:28:20 39° SW 23:29:25 57° WNW 23:33:11 10° N
Cosmos 1943 Rocket 3.0 23:25:17 10° NNW 23:30:51 51° NE 23:36:22 10° SE
Cosmos 332 Rocket 4.3 23:29:39 29° SSE 23:31:40 47° ESE 23:36:16 10° NNE
Cosmos 1437 Rocket 3.1 23:29:09 10° NNW 23:32:47 46° W 23:33:33 39° SW
Cosmos 1908 4.4 23:30:48 10° NNW 23:34:04 28° W 23:34:48 26° WSW
ADEOS II 4.2 23:32:55 10° NE 23:36:24 18° E 23:39:53 10° SE
Cosmos 2298 Rocket 4.0 23:34:33 30° SSW 23:37:15 81° WNW 23:42:37 10° NNE
Cosmos 1867 4.0 23:33:44 19° WSW 23:37:38 61° NW 23:43:05 10° NE
Cosmos 1626 3.4 23:37:36 24° WSW 23:38:48 29° WNW 23:42:03 10° N
Lacrosse 5 rocket 3.3 23:39:06 14° SE 23:39:25 14° SE 23:41:33 10° E
GP-B 3.2 23:35:30 10° N 23:39:57 74° E 23:42:03 31° S
Thor Agena Rocket 3.9 23:35:34 10° NNE 23:40:48 57° ESE 23:43:43 26° S
USA 215 3.6 23:34:51 10° ENE 23:41:19 66° NNW 23:47:48 10° W
Cosmos 1953 2.9 23:39:52 10° NNW 23:43:40 41° W 23:44:46 33° SW
Cosmos 2278 Rocket 2.6 23:40:59 10° NW 23:46:21 44° WSW 23:48:51 28° SSW
EO 1 Delta rocket 3.9 23:43:58 10° NNE 23:48:38 82° E 23:51:23 28° S
ADEOS Rocket 4.5 23:52:27 15° WSW 23:54:54 20° W 23:59:10 10° NW
